Tracking 21612 objects as of 20-Oct-2020
HD Live streaming from Space Station
objects crossing your sky now

COSMOS 1433

Track COSMOS 1433 now!
10-day predictions
COSMOS 1433 is classified as:


NORAD ID: 13765
Int'l Code: 1983-002E
Perigee: 1,452.8 km
Apogee: 1,474.6 km
Inclination: 74.0 °
Period: 115.0 minutes
Semi major axis: 7834 km
RCS: 0.733 m2 (medium)
Launch date: January 19, 1983
Source: Commonwealth of Independent States (former USSR) (CIS)
Launch site: PLESETSK MISSILE AND SPACE COMPLEX (PKMTR)
aabbcc
Your satellite tracking list
Your tracking list is empty




NASA's NSSDC Master Catalog

Two Line Element Set (TLE):
1 13765U 83002E   20294.30501330 -.00000025 +00000-0 -58726-4 0  9998
2 13765 074.0210 129.6951 0013912 203.9451 330.0329 12.51909873725561
Source of the keplerian elements: AFSPC